[[{"header":{"parameterUnit":"m.s-1","parameterCategory":1,"la1":30.2991,"la2":30.254,"lo1":-89.0895,"lo2":-89.0444,"dy":0.0017,"dx":0.0017,"nx":28,"ny":28,"refTime":"2024-03-08T03:00:00:Z","depth":0,"parameterNumber":2,"parameterNumberName":"U-component_of_WINDS"},"data":[0,0,0,0,0,0,0,0,0,0,0,0,0,0,0,0,0,0,0,0,0,0,0,0,0,0,0,0,0,0,0,0,0,0,0,0,0,0,0,0,0,0,0,0,0,0,0,0,0,0,0,0,0,0,0,0,0,0,4.0593,4.0595,0,4.0727,4.0729,4.073,4.0728,4.0726,4.0724,4.0722,4.0862,4.0867,4.0873,0,0,0,0,0,0,0,0,0,0,0,0,0,4.0341,4.0346,4.0593,4.0595,4.0597,4.0727,4.0729,4.073,4.0728,4.0726,4.0724,4.0722,4.086,4.0867,4.0873,0,0,0,0,0,0,0,0,0,0,0,0,0,4.046,4.0347,4.0593,4.0611,4.0614,4.0726,4.0729,4.0731,4.0728,4.0726,4.0723,4.0721,4.0858,4.0866,4.0874,4.0978,0,0,4.0899,4.0902,0,0,0,0,0,0,0,0,4.0454,4.047,4.0607,4.061,4.0613,4.0708,4.0691,4.0814,4.0729,4.0685,4.0722,4.0719,4.0813,4.0825,4.0856,4.0985,4.0991,4.09,4.0905,4.0908,4.091,0,0,0,0,0,0,0,4.0445,4.0464,4.0646,4.0609,4.0613,4.0614,4.0628,4.0714,4.0763,4.0689,4.0689,4.0705,4.0815,4.0848,4.0859,4.0993,4.0899,4.0907,4.0912,4.0915,4.1219,4.1222,0,0,0,0,0,0,4.0433,4.0457,4.0642,4.065,4.0525,4.0621,4.0637,4.068,4.0762,4.0772,4.0707,4.0704,4.0836,4.085,4.0864,4.0995,4.0908,4.0916,4.092,4.1216,4.122,4.1223,0,0,0,0,0,0,4.0427,4.0449,4.0637,4.0554,4.0578,4.0628,4.0677,4.0684,4.0718,4.0775,4.0784,4.0732,4.0834,4.0853,4.0951,4.0999,4.0919,4.0927,4.1212,4.1217,4.1222,4.1254,0,0,0,0,0,0,4.042,4.0447,4.0486,4.0555,4.0582,4.0719,4.068,4.0689,4.0732,4.0729,4.0801,4.0811,4.0833,4.0939,4.0959,4.1009,4.0933,4.1208,4.1214,4.122,4.1249,4.1259,4.1268,0,0,0,0,0,4.0411,4.0489,4.0488,4.051,4.0631,4.0722,4.0738,4.0762,4.0735,4.0776,4.0814,4.0808,4.0991,4.0949,4.0971,4.1025,4.1205,4.1213,4.122,4.1244,4.1257,4.1268,0,0,0,0,0,0,4.0425,4.0498,4.0498,4.06,4.0655,4.0721,4.0773,4.0774,4.0838,4.0833,4.0861,4.0877,4.0976,4.101,4.0962,4.1132,4.1095,4.1107,4.1106,4.1119,4.1128,4.1118,4.094,0,0,0,0,0,4.0439,4.0506,4.0567,4.0652,4.068,4.0722,4.0762,4.0776,4.0834,4.0857,4.0902,4.096,4.1031,4.1076,4.1144,4.1254,4.1271,4.1302,4.1312,4.1319,4.133,4.1394,4.141,4.1247,4.1247,4.1247,0,0,4.0471,4.052,4.056,4.0656,4.07,4.077,4.0741,4.0815,4.0869,4.0869,4.0965,4.1,4.1067,4.1172,4.1221,4.1204,4.1379,4.1329,4.1334,4.1341,4.1403,4.1419,4.1432,4.1252,4.1251,4.125,0,0,4.0564,4.0607,4.0683,4.0729,4.0796,4.0824,4.0843,4.0911,4.0934,4.1031,4.1033,4.1098,4.1218,4.1267,4.1307,4.1424,4.1423,4.1445,4.1496,4.1559,4.1571,4.1583,4.1627,4.1642,4.1455,4.1455,4.1455,0,4.0595,4.0699,4.0723,4.0799,4.0843,4.0847,4.0927,4.097,4.1056,4.1087,4.1067,4.122,4.1265,4.1384,4.1413,4.1444,4.1469,4.1437,4.1567,4.1579,4.159,4.1633,4.1649,4.1458,4.1457,4.1457,4.1457,0,4.0736,4.0809,4.0863,4.0947,4.0997,4.1074,4.1112,4.116,4.117,4.1201,4.1302,4.1357,4.1437,4.1466,4.1477,4.1588,4.1576,4.1561,4.1524,4.1608,4.1649,4.1665,4.1461,4.146,4.1459,4.1459,0,0,4.0839,4.0938,4.0957,4.0997,4.1074,4.1132,4.1211,4.129,4.1332,4.1392,4.1462,4.1565,4.1553,4.1599,4.1616,4.167,4.1763,4.165,4.1652,4.1671,4.1893,4.1904,4.1923,4.1763,4.1766,4.1769,4.1888,0,4.0943,4.1082,4.1107,4.123,4.13,4.1307,4.1376,4.1432,4.1464,4.153,4.1566,4.164,4.1617,4.1645,4.17,4.174,4.1808,4.1732,4.183,4.1833,4.1814,4.1943,4.1955,4.2065,4.1904,4.1907,4.1908,0,4.1081,4.1146,4.1276,4.1346,4.1377,4.1438,4.1515,4.1576,4.1641,4.1661,4.1715,4.1726,4.1812,4.1771,4.1891,4.1839,4.1881,4.1907,4.1912,4.1923,4.1876,4.196,4.21,4.2117,4.1933,4.1931,4.1929,0,4.1147,4.1266,4.1361,4.1394,4.1478,4.1522,4.156,4.1622,4.1669,4.1737,4.1768,4.1845,4.1887,4.1947,4.198,4.1947,4.21,4.2061,4.2121,4.212,4.2153,4.215,4.2304,4.2177,4.2177,4.2177,4.2176,0,4.126,4.134,4.1392,4.145,4.1541,4.157,4.166,4.1697,4.1753,4.1821,4.1831,4.1894,4.1933,4.2003,4.203,4.2127,4.2146,4.2166,4.2173,4.2166,4.2164,4.2194,4.2188,4.2181,4.218,4.2179,4.2179,0,4.1348,4.1386,4.149,4.1562,4.1582,4.1646,4.1709,4.1767,4.18,4.1886,4.1907,4.196,4.2043,4.2082,4.2185,4.2203,4.2314,4.2315,4.2292,4.2295,4.2354,4.2348,4.2533,4.256,4.2414,4.2416,4.2417,0,4.1418,4.148,4.156,4.1606,4.1644,4.1717,4.1766,4.1799,4.185,4.1931,4.198,4.2063,4.2132,4.2265,4.2314,4.2394,4.2397,4.2456,4.2409,4.2402,4.2401,4.2397,4.2405,4.2465,4.2466,4.2468,4.2469,0,4.154,4.1557,4.1626,4.1703,4.1761,4.1823,4.1885,4.1922,4.1965,4.2022,4.2107,4.2161,4.2267,4.2351,4.2434,4.2475,4.2481,4.2483,4.2502,4.2496,4.2482,4.2493,4.2317,4.2479,4.2478,4.2477,4.2476,4.2476,4.1623,4.168,4.1745,4.1823,4.1873,4.1932,4.1991,4.2032,4.2103,4.2192,4.2208,4.2299,4.2367,4.248,4.2524,4.2598,4.2584,4.261,4.2617,4.2624,4.2628,4.2469,4.2613,4.2613,4.2612,4.2612,4.2612,0,4.1747,4.179,4.1862,4.1948,4.2011,4.201,4.2079,4.2131,4.2211,4.2274,4.2342,4.2442,4.2524,4.258,4.2665,4.2713,4.2718,4.2735,4.2732,4.2742,4.2634,4.2611,4.273,4.2729,4.2729,4.2729,4.2729,4.2729,4.1819,4.1916,4.1941,4.2064,4.2107,4.2197,4.2237,4.2292,4.2342,4.2453,4.2521,4.2557,4.2619,4.2708,4.2785,4.28,4.2831,4.2849,4.2863,4.2761,4.2749,4.2737,4.2716,4.2855,4.2855,4.2965,4.2966,4.2967]},{"header":{"parameterUnit":"m.s-1","parameterCategory":1,"la1":30.2991,"la2":30.254,"lo1":-89.0895,"lo2":-89.0444,"dy":0.0017,"dx":0.0017,"nx":28,"ny":28,"refTime":"2024-03-08T03:00:00:Z","depth":0,"parameterNumber":3,"parameterNumberName":"V-component_of_WINDS"},"data":[0,0,0,0,0,0,0,0,0,0,0,0,0,0,0,0,0,0,0,0,0,0,0,0,0,0,0,0,0,0,0,0,0,0,0,0,0,0,0,0,0,0,0,0,0,0,0,0,0,0,0,0,0,0,0,0,0,0,0.8951,0.8954,0,0.9225,0.9228,0.9231,0.9302,0.9301,0.9299,0.9298,0.9583,0.9592,0.9601,0,0,0,0,0,0,0,0,0,0,0,0,0,0.8495,0.8503,0.8951,0.8954,0.8958,0.9224,0.9228,0.9232,0.9303,0.9301,0.9299,0.9297,0.958,0.9591,0.9602,0,0,0,0,0,0,0,0,0,0,0,0,0,0.8723,0.8506,0.895,0.9025,0.9035,0.9223,0.9228,0.9233,0.9303,0.9301,0.9298,0.9296,0.9576,0.959,0.9603,0.9738,0,0,0.9645,0.9651,0,0,0,0,0,0,0,0,0.871,0.874,0.9011,0.902,0.9031,0.9227,0.9172,0.9402,0.9304,0.9201,0.9297,0.9295,0.9467,0.9489,0.9546,0.9752,0.9764,0.9646,0.9655,0.9661,0.9665,0,0,0,0,0,0,0,0.8694,0.8729,0.9059,0.9015,0.9027,0.9047,0.9076,0.9216,0.9345,0.921,0.9216,0.9247,0.9472,0.9533,0.9554,0.9768,0.9646,0.9658,0.9667,0.9672,1.0099,1.0102,0,0,0,0,0,0,0.8665,0.8715,0.9051,0.9068,0.8861,0.9057,0.909,0.9167,0.9344,0.9368,0.9249,0.9249,0.9511,0.9537,0.9564,0.9735,0.9661,0.9673,0.9681,1.0096,1.01,1.0103,0,0,0,0,0,0,0.8655,0.8694,0.904,0.8893,0.8938,0.9067,0.9153,0.9173,0.9234,0.9373,0.9397,0.9287,0.951,0.9545,0.9694,0.9745,0.968,0.9692,1.0092,1.0097,1.0101,1.0076,0,0,0,0,0,0,0.8641,0.869,0.8742,0.8894,0.8946,0.9164,0.9156,0.9181,0.9257,0.9261,0.9415,0.9439,0.951,0.9673,0.9708,0.9763,0.9703,1.0088,1.0094,1.01,1.0073,1.0079,1.0085,0,0,0,0,0,0.8625,0.8725,0.8744,0.8784,0.9013,0.9167,0.9197,0.9276,0.9261,0.9315,0.9404,0.9434,0.9734,0.9688,0.9728,0.9788,1.0086,1.0093,1.0099,1.007,1.0078,1.0084,0,0,0,0,0,0,0.8578,0.8746,0.8769,0.8921,0.9029,0.9178,0.9249,0.9282,0.9398,0.9396,0.9491,0.9525,0.9669,0.9743,0.9689,0.9928,0.991,0.9925,0.9874,0.9883,0.9888,0.9868,0.9714,0,0,0,0,0,0.8585,0.8694,0.8836,0.8956,0.9009,0.9119,0.9189,0.9241,0.9357,0.9403,0.9503,0.9616,0.9736,0.9814,0.9932,1.0083,1.0119,1.0144,1.015,1.0154,1.0167,1.0253,1.0267,1.0126,1.0126,1.0126,0,0,0.8601,0.8706,0.877,0.8949,0.9039,0.9151,0.9157,0.9276,0.9361,0.9422,0.9569,0.9646,0.9779,0.993,1.0002,0.9997,1.0213,1.0163,1.0165,1.0176,1.0262,1.0275,1.0287,1.0131,1.013,1.0129,0,0,0.8688,0.8778,0.8889,0.8978,0.9112,0.9185,0.9211,0.9356,0.9409,0.9558,0.9606,0.9709,0.9913,1.0006,1.0079,1.02,1.0232,1.0236,1.0267,1.035,1.0361,1.0372,1.0416,1.0431,1.0247,1.0247,1.0247,0,0.8692,0.8862,0.8942,0.9058,0.9136,0.9194,0.9307,0.939,0.9557,0.961,0.9601,0.9859,0.9952,1.0126,1.0155,1.0213,1.0247,1.0219,1.0353,1.0364,1.0375,1.0418,1.0435,1.0247,1.0247,1.0247,1.0247,0,0.886,0.8977,0.905,0.9208,0.9294,0.9408,0.9506,0.9584,0.9628,0.9701,0.9852,0.9966,1.0108,1.0153,1.0197,1.0334,1.0326,1.0334,1.0318,1.0387,1.0429,1.0446,1.0247,1.0247,1.0247,1.0247,0,0,0.8928,0.9126,0.9152,0.9224,0.9376,0.9469,0.9586,0.9723,0.9789,0.9901,1.0003,1.0174,1.0181,1.0265,1.032,1.0393,1.0483,1.0393,1.0397,1.0406,1.0641,1.0635,1.0653,1.0504,1.0507,1.051,1.063,0,0.9034,0.9244,0.9318,0.9492,0.9601,0.9657,0.976,0.9865,0.9936,1.0041,1.0121,1.0241,1.0242,1.0293,1.0367,1.0456,1.0531,1.0448,1.0601,1.0606,1.0568,1.0675,1.0669,1.0777,1.0647,1.065,1.0652,0,0.9188,0.93,0.9484,0.9622,0.9671,0.9761,0.9893,0.9991,1.0112,1.016,1.0252,1.0302,1.0428,1.0402,1.0578,1.052,1.0587,1.064,1.0646,1.0665,1.0634,1.0698,1.0814,1.083,1.0679,1.0677,1.0675,0,0.9219,0.9417,0.9553,0.9612,0.9777,0.9839,0.9911,1.0029,1.0106,1.0222,1.0273,1.0402,1.0473,1.0573,1.0657,1.063,1.0825,1.0807,1.0869,1.0867,1.091,1.0906,1.1039,1.095,1.0949,1.0949,1.0949,0,0.9332,0.9442,0.9569,0.9652,0.9778,0.9863,0.9985,1.0061,1.0165,1.0265,1.0322,1.0415,1.0519,1.0627,1.0693,1.0829,1.0861,1.0904,1.092,1.09,1.0894,1.0946,1.0942,1.0954,1.0953,1.0952,1.0951,0,0.9389,0.9478,0.9629,0.9772,0.981,0.9897,1.002,1.0104,1.0177,1.0303,1.0338,1.0454,1.0583,1.0676,1.0843,1.0888,1.1034,1.105,1.0993,1.1001,1.106,1.1053,1.1232,1.126,1.115,1.1151,1.1151,0,0.9455,0.9541,0.9692,0.9763,0.9834,0.9946,1.0025,1.0112,1.0192,1.0336,1.0403,1.0535,1.0646,1.0849,1.095,1.1078,1.1099,1.1152,1.1118,1.1095,1.1101,1.1095,1.1105,1.1157,1.1158,1.1159,1.1159,0,0.9564,0.9604,0.9714,0.984,0.9932,1.0036,1.0141,1.0196,1.0302,1.0389,1.052,1.0606,1.0775,1.0907,1.1045,1.1121,1.1159,1.1169,1.119,1.1171,1.1135,1.1157,1.1008,1.1165,1.1164,1.1164,1.1164,1.1163,0.963,0.9709,0.9827,0.9948,1.0036,1.0132,1.0218,1.0301,1.0412,1.0556,1.06,1.0737,1.0856,1.1045,1.1122,1.1231,1.123,1.126,1.1269,1.1275,1.1275,1.1115,1.1257,1.1257,1.1257,1.1257,1.1257,0,0.9742,0.9821,0.9931,1.0075,1.0171,1.0195,1.0313,1.0392,1.0511,1.0618,1.0725,1.0876,1.1004,1.1113,1.1246,1.1312,1.1333,1.1345,1.1342,1.1359,1.1269,1.1237,1.1326,1.1325,1.1325,1.1325,1.1325,1.1325,0.9812,0.9948,1.0001,1.018,1.0259,1.0392,1.0457,1.0547,1.0632,1.0798,1.0904,1.0974,1.1083,1.1223,1.1342,1.1371,1.1418,1.1425,1.1459,1.1373,1.1365,1.1357,1.1328,1.1434,1.1434,1.154,1.1541,1.1542]}]]